[[{"header":{"parameterUnit":"m.s-1","parameterCategory":1,"la1":30.2991,"la2":30.254,"lo1":-89.0895,"lo2":-89.0444,"dy":0.0017,"dx":0.0017,"nx":28,"ny":28,"refTime":"2025-08-29T21:00:00:Z","depth":0,"parameterNumber":2,"parameterNumberName":"U-component_of_WINDS"},"data":[0,0,0,0,0,0,0,0,0,0,0,0,0,0,0,0,0,0,0,0,0,0,0,0,0,0,0,0,0,0,0,0,0,0,0,0,0,0,0,0,0,0,0,0,0,0,0,0,0,0,0,0,0,0,0,0,0,0,0.6107,0.6107,0,0.6092,0.6092,0.6091,0.6063,0.6063,0.6062,0.6062,0.6047,0.6047,0.6047,0,0,0,0,0,0,0,0,0,0,0,0,0,0.6114,0.6114,0.6107,0.6107,0.6107,0.6092,0.6092,0.6091,0.6064,0.6063,0.6062,0.6062,0.6047,0.6047,0.6047,0,0,0,0,0,0,0,0,0,0,0,0,0,0.6106,0.6114,0.6107,0.6091,0.609,0.6092,0.6092,0.6091,0.6064,0.6063,0.6062,0.6061,0.6047,0.6047,0.6047,0.6064,0,0,0.6048,0.6048,0,0,0,0,0,0,0,0,0.6107,0.6106,0.6094,0.6092,0.6091,0.6079,0.6088,0.6082,0.6064,0.6074,0.6062,0.6061,0.6058,0.6057,0.6056,0.6063,0.6063,0.6048,0.6048,0.6048,0.6048,0,0,0,0,0,0,0,0.6107,0.6107,0.6101,0.6094,0.6092,0.6085,0.6083,0.6087,0.6071,0.6073,0.6071,0.6069,0.6057,0.6056,0.6056,0.6062,0.6048,0.6048,0.6048,0.6048,0.6084,0.6085,0,0,0,0,0,0,0.611,0.6107,0.6102,0.6101,0.6097,0.6086,0.6083,0.6083,0.607,0.6068,0.607,0.6068,0.6056,0.6055,0.6055,0.6075,0.6048,0.6048,0.6048,0.6083,0.6084,0.6085,0,0,0,0,0,0,0.6111,0.611,0.6102,0.6103,0.6102,0.6086,0.6087,0.6083,0.6082,0.6068,0.6065,0.6072,0.6056,0.6055,0.6062,0.6074,0.6048,0.6048,0.6082,0.6083,0.6084,0.6115,0,0,0,0,0,0,0.6111,0.611,0.6116,0.6104,0.6102,0.611,0.6087,0.6084,0.6083,0.608,0.6069,0.6067,0.6055,0.6062,0.6062,0.6074,0.6048,0.6081,0.6082,0.6084,0.6113,0.6117,0.612,0,0,0,0,0,0.6111,0.6126,0.6117,0.6116,0.6109,0.611,0.6109,0.6095,0.6084,0.609,0.6081,0.6067,0.6072,0.6063,0.6063,0.6075,0.608,0.6082,0.6084,0.6111,0.6116,0.612,0,0,0,0,0,0,0.614,0.6124,0.6114,0.6124,0.6119,0.6106,0.6113,0.6101,0.6099,0.6097,0.6079,0.6077,0.6087,0.6081,0.6071,0.6091,0.6074,0.6076,0.6095,0.6099,0.6103,0.6105,0.6048,0,0,0,0,0,0.6148,0.615,0.6135,0.6146,0.6144,0.6129,0.6129,0.6118,0.6112,0.611,0.6101,0.6096,0.6097,0.6097,0.6097,0.6111,0.6109,0.6119,0.6123,0.6126,0.6129,0.6137,0.6142,0.6091,0.6091,0.6091,0,0,0.6164,0.6155,0.6157,0.6151,0.6146,0.6149,0.6127,0.6131,0.6133,0.611,0.6117,0.6111,0.6104,0.6115,0.6119,0.6111,0.6142,0.6129,0.6132,0.6132,0.614,0.6144,0.6149,0.6093,0.6092,0.6092,0,0,0.6194,0.6187,0.6196,0.6191,0.6183,0.6173,0.6175,0.6163,0.6158,0.6165,0.6148,0.615,0.6151,0.6147,0.6145,0.6175,0.6162,0.6175,0.6196,0.6204,0.6208,0.6212,0.6224,0.6228,0.6177,0.6177,0.6177,0,0.6215,0.6219,0.6202,0.6207,0.6206,0.6185,0.6194,0.619,0.6182,0.6182,0.6172,0.6173,0.6167,0.6177,0.6184,0.6183,0.6186,0.6177,0.6209,0.6212,0.6215,0.6226,0.6231,0.6179,0.6179,0.6178,0.6178,0,0.6246,0.6248,0.6256,0.625,0.6249,0.6256,0.6241,0.6242,0.6231,0.6222,0.623,0.6221,0.6219,0.6221,0.621,0.623,0.6225,0.6212,0.6195,0.6222,0.6232,0.6236,0.6181,0.6181,0.618,0.618,0,0,0.6296,0.6279,0.6282,0.6279,0.6269,0.6271,0.6277,0.6275,0.6277,0.6272,0.6278,0.6279,0.6267,0.6265,0.6254,0.6261,0.6286,0.6247,0.6247,0.6256,0.6309,0.632,0.6325,0.6277,0.6278,0.6278,0.631,0,0.6325,0.6335,0.632,0.6334,0.6337,0.6316,0.6322,0.6316,0.6308,0.631,0.63,0.6302,0.6286,0.6285,0.629,0.6282,0.6297,0.6279,0.6283,0.6284,0.6288,0.633,0.6341,0.6371,0.6313,0.6314,0.6315,0,0.6362,0.6359,0.6373,0.6362,0.6362,0.6367,0.6365,0.6366,0.6359,0.6353,0.635,0.6337,0.6343,0.6325,0.6334,0.6322,0.6323,0.6319,0.632,0.6321,0.6302,0.6334,0.638,0.6386,0.632,0.632,0.6319,0,0.6399,0.6398,0.6406,0.6404,0.6391,0.6395,0.639,0.6383,0.6382,0.638,0.638,0.6378,0.6377,0.6376,0.6363,0.6351,0.6374,0.6355,0.637,0.637,0.6377,0.6377,0.6426,0.6374,0.6374,0.6374,0.6374,0,0.6435,0.6445,0.6423,0.6429,0.6439,0.6421,0.6432,0.6425,0.6418,0.6422,0.6404,0.6408,0.639,0.6392,0.6382,0.6391,0.639,0.6386,0.6384,0.6389,0.639,0.6391,0.6389,0.6375,0.6375,0.6375,0.6375,0,0.6479,0.6465,0.6473,0.6459,0.6456,0.6465,0.6454,0.6458,0.6448,0.6454,0.6454,0.6439,0.6441,0.6427,0.6426,0.6419,0.6435,0.6427,0.6437,0.6436,0.6452,0.6451,0.6505,0.6511,0.6454,0.6455,0.6455,0,0.6504,0.6511,0.6498,0.6499,0.6495,0.6497,0.6497,0.6479,0.648,0.6473,0.6479,0.6479,0.6478,0.6482,0.6472,0.6471,0.6465,0.6484,0.6465,0.6471,0.6468,0.6468,0.6469,0.6489,0.6489,0.649,0.649,0,0.655,0.6543,0.6543,0.654,0.654,0.6538,0.6534,0.6536,0.6517,0.6519,0.652,0.652,0.6519,0.652,0.6517,0.6512,0.6499,0.6496,0.65,0.6506,0.6512,0.6511,0.645,0.6495,0.6495,0.6494,0.6494,0.6494,0.6587,0.6592,0.6584,0.6585,0.658,0.6577,0.6581,0.6571,0.6572,0.657,0.656,0.6563,0.6557,0.6552,0.6548,0.6551,0.6542,0.6547,0.6549,0.6551,0.6555,0.651,0.655,0.655,0.655,0.655,0.655,0,0.6634,0.6627,0.6628,0.6623,0.6624,0.661,0.6604,0.6606,0.661,0.6604,0.6604,0.6606,0.6607,0.6596,0.6595,0.66,0.6594,0.6601,0.6601,0.6601,0.6562,0.6559,0.6606,0.6606,0.6606,0.6606,0.6606,0.6606,0.6659,0.6668,0.6659,0.6666,0.6659,0.6663,0.6661,0.6658,0.6654,0.6657,0.6657,0.665,0.6642,0.6641,0.6641,0.6638,0.664,0.6649,0.6644,0.6608,0.6603,0.6598,0.6596,0.6649,0.6649,0.6683,0.6683,0.6683]},{"header":{"parameterUnit":"m.s-1","parameterCategory":1,"la1":30.2991,"la2":30.254,"lo1":-89.0895,"lo2":-89.0444,"dy":0.0017,"dx":0.0017,"nx":28,"ny":28,"refTime":"2025-08-29T21:00:00:Z","depth":0,"parameterNumber":3,"parameterNumberName":"V-component_of_WINDS"},"data":[0,0,0,0,0,0,0,0,0,0,0,0,0,0,0,0,0,0,0,0,0,0,0,0,0,0,0,0,0,0,0,0,0,0,0,0,0,0,0,0,0,0,0,0,0,0,0,0,0,0,0,0,0,0,0,0,0,0,-2.1875,-2.1876,0,-2.1946,-2.1947,-2.1948,-2.1972,-2.1971,-2.1971,-2.1971,-2.2045,-2.2047,-2.2049,0,0,0,0,0,0,0,0,0,0,0,0,0,-2.1762,-2.1764,-2.1875,-2.1876,-2.1877,-2.1946,-2.1947,-2.1948,-2.1972,-2.1971,-2.1971,-2.1971,-2.2044,-2.2047,-2.205,0,0,0,0,0,0,0,0,0,0,0,0,0,-2.182,-2.1764,-2.1875,-2.1897,-2.19,-2.1946,-2.1947,-2.1948,-2.1972,-2.1971,-2.1971,-2.197,-2.2043,-2.2047,-2.205,-2.208,0,0,-2.206,-2.2062,0,0,0,0,0,0,0,0,-2.1816,-2.1824,-2.1893,-2.1896,-2.1899,-2.195,-2.1934,-2.1992,-2.1972,-2.1944,-2.1971,-2.197,-2.2014,-2.202,-2.2034,-2.2083,-2.2087,-2.2061,-2.2063,-2.2064,-2.2065,0,0,0,0,0,0,0,-2.1812,-2.1821,-2.1903,-2.1894,-2.1897,-2.1904,-2.1912,-2.1945,-2.1981,-2.1947,-2.1949,-2.1957,-2.2015,-2.2031,-2.2036,-2.2088,-2.2061,-2.2064,-2.2066,-2.2067,-2.2166,-2.2166,0,0,0,0,0,0,-2.1804,-2.1817,-2.1901,-2.1905,-2.1856,-2.1906,-2.1915,-2.1934,-2.198,-2.1987,-2.1957,-2.1957,-2.2025,-2.2032,-2.2039,-2.2076,-2.2064,-2.2067,-2.2069,-2.2165,-2.2166,-2.2166,0,0,0,0,0,0,-2.1802,-2.1812,-2.1898,-2.1862,-2.1874,-2.1909,-2.193,-2.1935,-2.1951,-2.1988,-2.1995,-2.1966,-2.2025,-2.2034,-2.2069,-2.2079,-2.2069,-2.2072,-2.2164,-2.2165,-2.2166,-2.2152,0,0,0,0,0,0,-2.1799,-2.1811,-2.1822,-2.1862,-2.1875,-2.1927,-2.193,-2.1937,-2.1956,-2.1958,-2.1998,-2.2005,-2.2025,-2.2064,-2.2073,-2.2084,-2.2075,-2.2164,-2.2165,-2.2166,-2.2152,-2.2152,-2.2153,0,0,0,0,0,-2.1794,-2.1816,-2.1822,-2.1832,-2.189,-2.1928,-2.1935,-2.1958,-2.1957,-2.1969,-2.1993,-2.2003,-2.2077,-2.2068,-2.2077,-2.209,-2.2163,-2.2164,-2.2166,-2.2152,-2.2152,-2.2153,0,0,0,0,0,0,-2.1776,-2.1821,-2.1829,-2.1864,-2.1892,-2.1932,-2.1947,-2.1958,-2.1987,-2.1987,-2.2015,-2.2024,-2.2057,-2.2077,-2.2066,-2.2121,-2.2121,-2.2124,-2.2107,-2.2108,-2.2108,-2.2102,-2.2077,0,0,0,0,0,-2.1776,-2.1802,-2.1841,-2.1868,-2.1881,-2.1912,-2.1929,-2.1944,-2.1974,-2.1986,-2.2013,-2.2042,-2.2072,-2.2091,-2.2121,-2.2155,-2.2165,-2.2169,-2.2169,-2.2169,-2.2172,-2.2191,-2.2194,-2.2171,-2.2171,-2.2171,0,0,-2.1776,-2.1804,-2.1819,-2.1865,-2.1888,-2.1915,-2.1921,-2.195,-2.197,-2.1991,-2.2026,-2.2046,-2.2081,-2.2116,-2.2133,-2.2134,-2.218,-2.2171,-2.2171,-2.2173,-2.2193,-2.2195,-2.2197,-2.2172,-2.2171,-2.2171,0,0,-2.179,-2.1814,-2.1839,-2.1862,-2.1897,-2.1917,-2.1923,-2.1962,-2.1976,-2.2012,-2.2028,-2.2053,-2.2103,-2.2127,-2.2146,-2.217,-2.218,-2.2179,-2.2181,-2.22,-2.2202,-2.2204,-2.2212,-2.2214,-2.2181,-2.2181,-2.2181,0,-2.1786,-2.1827,-2.185,-2.1878,-2.1897,-2.1917,-2.1942,-2.1964,-2.2007,-2.202,-2.2021,-2.2084,-2.2109,-2.215,-2.2156,-2.2171,-2.2179,-2.2174,-2.22,-2.2202,-2.2204,-2.2211,-2.2214,-2.2181,-2.2181,-2.2181,-2.2181,0,-2.182,-2.1848,-2.1864,-2.1904,-2.1925,-2.1952,-2.198,-2.1999,-2.2012,-2.2033,-2.2069,-2.2099,-2.2135,-2.2146,-2.216,-2.2189,-2.2189,-2.2194,-2.2194,-2.2205,-2.2213,-2.2216,-2.218,-2.218,-2.218,-2.218,0,0,-2.1823,-2.1876,-2.1882,-2.19,-2.194,-2.1963,-2.199,-2.2025,-2.2041,-2.207,-2.2094,-2.2136,-2.2142,-2.2163,-2.218,-2.2196,-2.2213,-2.22,-2.2201,-2.2201,-2.2247,-2.2242,-2.2245,-2.222,-2.2221,-2.2222,-2.2244,0,-2.1842,-2.1891,-2.1913,-2.1952,-2.1978,-2.1997,-2.2021,-2.2049,-2.2069,-2.2095,-2.2118,-2.2147,-2.2152,-2.2165,-2.2182,-2.2207,-2.2222,-2.2206,-2.2243,-2.2244,-2.2233,-2.2249,-2.2244,-2.2263,-2.2247,-2.2247,-2.2248,0,-2.187,-2.1898,-2.1939,-2.1976,-2.1988,-2.2009,-2.2043,-2.2067,-2.2099,-2.2113,-2.2136,-2.2153,-2.2183,-2.2181,-2.2224,-2.2212,-2.2229,-2.2244,-2.2245,-2.2249,-2.2246,-2.2252,-2.227,-2.2272,-2.2253,-2.2253,-2.2252,0,-2.1867,-2.1916,-2.1947,-2.1962,-2.2007,-2.2021,-2.204,-2.2072,-2.2091,-2.2121,-2.2134,-2.2167,-2.2185,-2.2211,-2.2236,-2.2232,-2.2275,-2.2276,-2.2288,-2.2287,-2.2295,-2.2294,-2.2314,-2.2307,-2.2307,-2.2307,-2.2307,0,-2.1885,-2.1909,-2.1946,-2.1965,-2.1993,-2.2019,-2.2047,-2.2068,-2.2096,-2.2119,-2.2139,-2.2161,-2.2193,-2.222,-2.224,-2.2272,-2.228,-2.2292,-2.2297,-2.229,-2.2288,-2.23,-2.2299,-2.2308,-2.2308,-2.2308,-2.2307,0,-2.1886,-2.1912,-2.1947,-2.1986,-2.1997,-2.2015,-2.2049,-2.2069,-2.209,-2.212,-2.2128,-2.2162,-2.2194,-2.2222,-2.2265,-2.2278,-2.2311,-2.2317,-2.23,-2.2302,-2.2312,-2.231,-2.234,-2.2346,-2.2335,-2.2335,-2.2335,0,-2.1896,-2.1915,-2.1955,-2.1972,-2.1991,-2.2018,-2.2038,-2.2065,-2.2084,-2.2122,-2.2137,-2.2171,-2.2199,-2.225,-2.2278,-2.2311,-2.2318,-2.2327,-2.2323,-2.2316,-2.2318,-2.2316,-2.2318,-2.2326,-2.2326,-2.2326,-2.2326,0,-2.1909,-2.1921,-2.1948,-2.1979,-2.2002,-2.2029,-2.2056,-2.2069,-2.2101,-2.2122,-2.2155,-2.2176,-2.222,-2.2253,-2.2289,-2.231,-2.2324,-2.2327,-2.2332,-2.2324,-2.2313,-2.2318,-2.2299,-2.2326,-2.2326,-2.2326,-2.2326,-2.2326,-2.1914,-2.1932,-2.1963,-2.1993,-2.2016,-2.2041,-2.2061,-2.2084,-2.2112,-2.2148,-2.2163,-2.2196,-2.2229,-2.2278,-2.2299,-2.2326,-2.2329,-2.2335,-2.2336,-2.2337,-2.2336,-2.2309,-2.2333,-2.2333,-2.2333,-2.2333,-2.2333,0,-2.1928,-2.1949,-2.1976,-2.2013,-2.2036,-2.2047,-2.2077,-2.2096,-2.2125,-2.2154,-2.2181,-2.2218,-2.2251,-2.2282,-2.2316,-2.2332,-2.2339,-2.234,-2.2339,-2.2343,-2.2332,-2.2325,-2.2334,-2.2334,-2.2334,-2.2334,-2.2334,-2.2334,-2.1938,-2.1968,-2.1984,-2.2026,-2.2047,-2.2079,-2.2096,-2.2119,-2.2142,-2.2183,-2.2209,-2.2229,-2.2259,-2.2296,-2.2326,-2.2335,-2.2346,-2.2345,-2.2355,-2.2344,-2.2344,-2.2344,-2.2337,-2.2348,-2.2348,-2.2364,-2.2364,-2.2364]}]]